www.pogodaiklimat.ru
ПОГОДА в Или
Время
(UTC), дата
09:53 22.02
10:53 22.02
11:53 22.02
12:53 22.02
13:53 22.02
14:53 22.02
15:53 22.02
16:53 22.02
17:53 22.02
18:53 22.02
19:53 22.02
20:53 22.02
21:53 22.02
22:53 22.02
23:53 22.02
00:53 22.02
01:53 22.02
02:53 22.02
03:53 22.02
04:53 22.02
05:53 22.02
06:53 22.02
07:53 23.02
08:53 23.02
09:53 23.02
10:53 23.02
11:53 23.02
12:53 23.02
13:53 23.02
14:53 23.02
15:53 23.02
16:53 23.02
17:53 23.02
18:53 23.02
19:53 23.02
20:53 23.02
21:53 23.02
22:53 23.02
23:53 23.02
00:53 23.02
01:53 23.02
02:53 23.02
03:53 23.02
04:53 23.02
05:53 23.02
06:53 23.02
07:53 24.02
08:53 24.02
Ветер
(напр.,м/с)
Видим. Явления Облачность Т
(С)
Тd
(С)
f
(%)
Тe
(С)
Тes
(С)
Комфортность P
(гПа)
Po
(гПа)
Тmin
(С)
Tmax
(С)
R
(мм)
R24
(мм)
S
(см)
Ю 4 16 км 8/0 3600 м
[средняя]
-3.3 -8.3 68 -9 -9 1017.7 809.3
Ю 2 16 км ясно -3.9 -8.9 68 -8 -8 1017.4 808.8 -3.9 +1.7
Ю 3 16 км ясно -3.9 -8.9 68 -9 -9 1017.9 809.0
Ю 2 16 км 5/0 3600 м
[средняя]
-4.4 -8.3 74 -9 -9 1019.0 809.0
Ю 2 16 км 2/0 3600 м
[средняя]
-3.9 -8.3 71 -9 -9 1018.7 808.8
0 16 км 8/0 2850 м
[средняя]
-1.7 -7.2 66 -2 -2 1018.4 809.0
0 16 км 10/0 2250 м
[средняя]
0.0 -8.3 54 -1 +1 1019.4 809.3
С 3 16 км 10/0 2100 м
[средняя]
+1.7 -7.8 49 -2 -1 1019.0 809.0 -4.4 +1.7
С 4 16 км 10/0 2250 м
[средняя]
+3.9 -8.3 41 0 +2 1017.9 808.5
СВ 7 16 км 8/0 2100 м
[средняя]
+5.6 -8.3 36 +1 +1 1016.3 807.7
СВ 5 16 км 10/0 2100 м
[средняя]
+5.6 -6.7 41 +1 +2 1015.3 806.6
С 5 16 км 10/10 1800 м +6.7 -5.6 41 +3 +3 1014.3 806.1
С 6 16 км 10/0 2100 м
[средняя]
+7.8 -6.1 37 +4 +5 1013.7 805.3
С 6 16 км 10/0 2100 м
[средняя]
+6.1 -5.0 45 +2 +2 1014.2 805.3 +1.7 +7.8
С 6 16 км 10/0 2250 м
[средняя]
+6.1 -6.1 41 +2 +2 1013.8 805.0
С 5 16 км 10/0 2100 м
[средняя]
+5.6 -6.1 43 +1 +1 1014.2 805.0
С 6 16 км 10/0 3000 м
[средняя]
+4.4 -2.8 59 -1 -1 1014.1 805.0
СВ 5 16 км 8/0 3000 м
[средняя]
+2.8 -2.2 70 -3 -3 1014.1 805.0
С 2 16 км ясно +1.1 -3.3 72 -3 -3 1014.6 805.3
С 4 16 км ясно +1.1 -6.7 56 -4 -4 1014.3 805.6 +1.1 +6.7
С 4 16 км ясно +1.7 -8.9 45 -3 -3 1013.8 805.8
С 4 16 км ясно 0.0 -9.4 49 -5 -5 1014.2 806.1
С 4 16 км ясно -1.1 -8.9 55 -7 -7 1014.8 806.4
С 5 16 км ясно -2.2 -9.4 58 -9 -9 1015.3 806.6
0 16 км ясно -3.3 -9.4 63 -4 -4 1015.4 806.6
0 16 км ясно -5.0 -10.0 68 -6 -6 1017.1 807.2 -7.2 +1.7
С 2 16 км ясно -6.1 -10.6 70 -11 -11 1018.3 808.0
0 16 км ясно -10.0 -12.2 84 -10 -10 1020.7 808.8
Ю 3 16 км ясно -10.6 -12.2 88 -17 -17 1022.2 809.6
Ю 1 16 км ясно -2.8 -8.3 66 -6 -5 1021.1 810.1
0 16 км ясно +3.3 -7.8 44 +3 +6 1020.2 810.4
С 1 16 км ясно +7.2 -11.7 25 +7 +12 1019.7 810.9 -10.6 +7.8
СВ 4 16 км ясно +9.4 -11.7 21 +7 +12 1019.5 811.2
16 км ясно +10.0 -12.2 20 +10 +23 опасность
простуды
1019.8 811.2
нст 3 16 км ясно +10.6 -13.3 17 +9 +16 1018.7 810.4
С 7
{10}
16 км ясно +12.2 -12.2 17 +10 +11 1018.6 810.1
З 7
{10}
16 км ясно +11.1 -11.1 20 +8 +10 1019.4 810.4
СЗ 7 16 км ясно +10.6 -11.7 20 +8 +8 1020.1 810.4 +7.2 +12.8
СЗ 4 16 км ясно +9.4 -11.1 22 +7 +8 1020.8 810.7
0 16 км ясно +5.0 -11.1 30 +5 +5 1022.9 810.4
В 1 16 км ясно +2.8 -10.6 37 +1 +1 1025.0 811.5
Ю 1 16 км ясно -2.2 -11.1 50 -5 -5 1023.9 811.2
Ю 3 16 км ясно -2.2 -10.6 53 -7 -7 1022.8 811.5
Ю 4 16 км ясно -3.9 -10.0 63 -11 -11 1021.9 811.5 -3.9 +11.1
СЗ 1 16 км ясно +1.7 -8.9 45 -0 -0 1020.1 811.7
0 16 км ясно +0.6 -8.9 49 0 0 1019.5 811.2
СЗ 2 16 км ясно -0.6 -9.4 51 -4 -4 1020.5 811.7
В 2 16 км ясно -2.8 -11.1 53 -7 -7 1020.5 811.7
Местоположение метеостанции Ely Airport: широта 39.2950 долгота -114.8453 высота над уровнем моря 1907 м.
В архиве по умолчанию представлена погода в Или за последние 1-2 суток. Обновление информации о фактической погоде в базе происходит ежечасно! Архивные данные за месяц целиком и за предыдущие месяцы Вы можете получить, выбрав интересующий диапазон дат из раскрывающегося списка и нажав кнопку "Ввод!".
Внимание! Архив погоды МЕТАР в базе сайта по станциям, не включенным в климатический монитор, хранится не более 60 дней. Нет смысла пытаться выбрать более раннюю дату.
*Определитесь, кто Вы:
Внимание! Время в таблицах - всемирное. Для получения местного времени необходимо прибавить поправку, которая равна ч.
Смотрите также архив погоды в соседних городах и на ближайших метеорологических станциях:
Партнеры нашего сайта:      
Пояснения к столбцам:
  • Ветер - указаны скорость ветра в м/с - средняя за 10 мин, порывы в срок и между сроками (в фигурных скобках) и направление, откуда дует ветер: С - северный,
  • СВ - северо-восточный, В - восточный, ЮВ - юго-восточный, Ю - южный, ЮЗ - юго-западный, З - западный, СЗ - северо-западный.
  • Видимость - горизонтальная дальность видимости в метрах или километрах. При видимости от 1 до 10 км при отсутствии осадков обычно наблюдается дымка, при ухудшении видимости до 1 км и менее - туман. В сухую погоду видимость может ухудшаться дымом, пылью или мглою.
  • Явления - указаны атмосферные явления, наблюдавшиеся в срок или в последний час перед сроком; фигурными скобками обозначены явления, наблюдавшиеся между сроками (за 1-3 часа до срока); квадратными скобками обозначены град или гололедные отложения с указанием их диаметра в мм.
  • Облачность - указаны через наклонную черту общая и нижняя облачность в баллах и высота нижней границы облаков в метрах; квадратными скобками обозначены формы облаков: Ci - перистые, Cs - перисто-слоистые, Cc - перисто-кучевые, Ac - высококучевые, As - высокослоистые, Sc - слоисто-кучевые, Ns - слоисто-дождевые, Cu - кучевые, Cb - кучево-дождевые. Подробнее классификацию облаков см. в Атласе облаков (PDF).
  • T - Температура воздуха - температура, измеренная на высоте 2 м над землей.
  • Td - Температура точки росы - температура, при понижении до которой содержащийся в воздухе водяной пар достигнет насыщения.
  • f - Относительная влажность воздуха - влажноcть воздуха, измеренная на высоте 2 м над землей.
  • Te - Эффективная температура - температура, которую ощущает одетый по сезону человек в тени. Характеристика душности погоды. При расчете учитывается влияние влажности воздуха и скорости ветра на теплоощущения человека.
  • Tes - Эффективная температура на солнце - температура, которую ощущает человек, с поправкой на солнечный нагрев. Характеристика знойности погоды. Зависит от высоты солнца над горизонтом, облачности и скорости ветра. Ночью, в пасмурную погоду, а также при ветре 12 м/с и более поправка равна нулю.
  • P - Атмосферное давление - приведенное к уровню моря атмосферное давление.
  • Po - Атмосферное давление - измеренное на уровне метеостанции атмосферное давление.
  • Tmin - Минимальная температура - минимум температуры воздуха на высоте 2 м над землей.
  • Tmax - Максимальная температура - максимум температуры воздуха на высоте 2 м над землей.
  • R - Количество осадков - Количество выпавших осадков за период времени, мм. При наведении курсора мыши на число - период времени, за который выпало указанное количество осадков.
  • R24 - Количество осадков - Количество выпавших осадков за 24 часа, мм.
  • S - Снежный покров - Высота снежного покрова, см. При наведении курсора мыши на число - состояние снежного покрова и степень покрытия местности в баллах.